• In Uzbekistan
  • List of Countries
  • For 7 days
  • Water Temperature
  • Weather Map
  • Weather Widgets
  • user-avatar
    Login

    Hourly Weather Samarqand

    Today, 29 May, Friday

    Time Temperature Precipitation Wind Pressure Humidity
    00:00 +25°C° 0 mm 2 mps 695 mmHg 36%
    01:00 +24°C° 0 mm 1 mps 695 mmHg 39%
    02:00 +24°C° 0 mm 1 mps 694 mmHg 41%
    03:00 +23°C° 0 mm 1 mps 694 mmHg 43%
    04:00 +23°C° 0 mm 1 mps 695 mmHg 44%
    05:00 +25°C° 0 mm 1 mps 695 mmHg 40%
    06:00 +26°C° 0 mm 1 mps 696 mmHg 36%
    07:00 +28°C° 0 mm 2 mps 696 mmHg 32%
    08:00 +30°C° 0 mm 2 mps 697 mmHg 27%
    09:00 +31°C° 0 mm 2 mps 697 mmHg 22%
    10:00 +34°C° 0 mm 3 mps 697 mmHg 18%
    11:00 +35°C° 0 mm 3 mps 697 mmHg 16%
    12:00 +35°C° 0 mm 3 mps 697 mmHg 14%
    13:00 +36°C° 0 mm 4 mps 697 mmHg 12%
    14:00 +36°C° 0 mm 4 mps 696 mmHg 12%
    15:00 +36°C° 0 mm 5 mps 696 mmHg 12%
    16:00 +35°C° 0 mm 5 mps 696 mmHg 12%
    17:00 +33°C° 0 mm 4 mps 696 mmHg 14%
    18:00 +30°C° 0 mm 4 mps 695 mmHg 16%
    19:00 +28°C° 0 mm 3 mps 695 mmHg 18%
    20:00 +27°C° 0 mm 3 mps 695 mmHg 18%
    21:00 +26°C° 0 mm 2 mps 695 mmHg 17%
    22:00 +25°C° 0 mm 2 mps 695 mmHg 17%
    23:00 +24°C° 0 mm 2 mps 695 mmHg 18%

    Tomorrow, 30 May, Saturday

    Time Temperature Precipitation Wind Pressure Humidity
    00:00 +23°C° 0 mm 2 mps 694 mmHg 20%
    01:00 +23°C° 0 mm 1 mps 694 mmHg 21%
    02:00 +22°C° 0 mm 1 mps 694 mmHg 23%
    03:00 +22°C° 0 mm 1 mps 694 mmHg 24%
    04:00 +22°C° 0 mm 1 mps 694 mmHg 25%
    05:00 +24°C° 0 mm 2 mps 694 mmHg 24%
    06:00 +26°C° 0 mm 2 mps 695 mmHg 22%
    07:00 +28°C° 0 mm 2 mps 696 mmHg 20%
    08:00 +29°C° 0 mm 2 mps 696 mmHg 19%
    09:00 +31°C° 0 mm 2 mps 696 mmHg 17%
    10:00 +32°C° 0 mm 2 mps 696 mmHg 15%
    11:00 +34°C° 0 mm 2 mps 696 mmHg 14%
    12:00 +35°C° 0 mm 2 mps 696 mmHg 12%
    13:00 +36°C° 0 mm 2 mps 696 mmHg 11%
    14:00 +36°C° 0 mm 2 mps 696 mmHg 11%
    15:00 +36°C° 0 mm 3 mps 696 mmHg 11%
    16:00 +36°C° 0 mm 3 mps 696 mmHg 11%
    17:00 +34°C° 0 mm 3 mps 696 mmHg 14%
    18:00 +31°C° 0 mm 3 mps 696 mmHg 18%
    19:00 +29°C° 0 mm 4 mps 695 mmHg 22%
    20:00 +28°C° 0 mm 3 mps 695 mmHg 22%
    21:00 +27°C° 0 mm 2 mps 696 mmHg 23%
    22:00 +26°C° 0 mm 2 mps 696 mmHg 23%
    23:00 +26°C° 0 mm 2 mps 695 mmHg 24%

    Day after tomorrow, 31 May, Sunday

    Time Temperature Precipitation Wind Pressure Humidity
    00:00 +25°C° 0 mm 2 mps 695 mmHg 25%
    01:00 +25°C° 0 mm 2 mps 695 mmHg 26%
    02:00 +24°C° 0 mm 2 mps 695 mmHg 27%
    03:00 +24°C° 0 mm 2 mps 695 mmHg 28%
    04:00 +23°C° 0 mm 2 mps 695 mmHg 29%
    05:00 +25°C° 0 mm 2 mps 696 mmHg 27%
    06:00 +27°C° 0 mm 1 mps 696 mmHg 26%
    07:00 +29°C° 0 mm 1 mps 697 mmHg 24%
    08:00 +31°C° 0 mm 1 mps 697 mmHg 22%
    09:00 +32°C° 0 mm 1 mps 697 mmHg 19%
    10:00 +34°C° 0 mm 1 mps 697 mmHg 16%
    11:00 +36°C° 0 mm 2 mps 697 mmHg 14%
    12:00 +37°C° 0 mm 2 mps 697 mmHg 12%
    13:00 +37°C° 0 mm 3 mps 697 mmHg 11%
    14:00 +37°C° 0 mm 3 mps 697 mmHg 10%
    15:00 +37°C° 0 mm 4 mps 696 mmHg 10%
    16:00 +37°C° 0 mm 4 mps 696 mmHg 10%
    17:00 +35°C° 0 mm 3 mps 696 mmHg 13%
    18:00 +33°C° 0 mm 3 mps 696 mmHg 15%
    19:00 +29°C° 0 mm 2 mps 696 mmHg 17%
    20:00 +29°C° 0 mm 2 mps 696 mmHg 19%
    21:00 +28°C° 0 mm 1 mps 696 mmHg 20%
    22:00 +27°C° 0 mm 1 mps 696 mmHg 21%
    23:00 +26°C° 0 mm 1 mps 695 mmHg 22%

    1 June, Monday

    Time Temperature Precipitation Wind Pressure Humidity
    00:00 +26°C° 0 mm 2 mps 695 mmHg 23%
    01:00 +25°C° 0 mm 2 mps 695 mmHg 24%
    02:00 +25°C° 0 mm 2 mps 695 mmHg 23%
    03:00 +25°C° 0 mm 2 mps 695 mmHg 23%
    04:00 +24°C° 0 mm 2 mps 695 mmHg 23%
    05:00 +27°C° 0 mm 2 mps 696 mmHg 21%
    06:00 +29°C° 0 mm 1 mps 696 mmHg 20%
    07:00 +31°C° 0 mm 1 mps 697 mmHg 18%
    08:00 +32°C° 0 mm 1 mps 697 mmHg 16%
    09:00 +34°C° 0 mm 1 mps 697 mmHg 13%
    10:00 +36°C° 0 mm 2 mps 698 mmHg 11%
    11:00 +37°C° 0 mm 2 mps 697 mmHg 11%
    12:00 +37°C° 0 mm 3 mps 697 mmHg 10%
    13:00 +38°C° 0 mm 4 mps 697 mmHg 10%
    14:00 +38°C° 0 mm 4 mps 697 mmHg 9%
    15:00 +38°C° 0 mm 3 mps 697 mmHg 9%
    16:00 +37°C° 0 mm 3 mps 697 mmHg 9%
    17:00 +35°C° 0 mm 2 mps 697 mmHg 11%
    18:00 +32°C° 0 mm 2 mps 697 mmHg 13%
    19:00 +29°C° 0 mm 1 mps 696 mmHg 15%
    20:00 +29°C° 0 mm 1 mps 696 mmHg 16%
    21:00 +28°C° 0 mm 1 mps 696 mmHg 16%
    22:00 +27°C° 0 mm 1 mps 696 mmHg 17%
    23:00 +27°C° 0 mm 1 mps 696 mmHg 18%

    2 June, Tuesday

    Time Temperature Precipitation Wind Pressure Humidity
    00:00 +27°C° 0 mm 1 mps 696 mmHg 18%
    01:00 +26°C° 0 mm 1 mps 696 mmHg 19%
    02:00 +26°C° 0 mm 1 mps 696 mmHg 20%
    03:00 +26°C° 0 mm 1 mps 695 mmHg 20%
    04:00 +25°C° 0 mm 2 mps 695 mmHg 20%
    05:00 +27°C° 0 mm 2 mps 696 mmHg 19%
    06:00 +29°C° 0 mm 2 mps 696 mmHg 18%
    07:00 +31°C° 0 mm 2 mps 697 mmHg 17%
    08:00 +34°C° 0 mm 2 mps 697 mmHg 15%
    09:00 +35°C° 0 mm 2 mps 697 mmHg 13%
    10:00 +37°C° 0 mm 2 mps 697 mmHg 11%
    11:00 +37°C° 0 mm 3 mps 697 mmHg 11%
    12:00 +38°C° 0 mm 3 mps 697 mmHg 10%
    13:00 +38°C° 0 mm 3 mps 697 mmHg 10%
    14:00 +38°C° 0 mm 4 mps 697 mmHg 10%
    15:00 +38°C° 0 mm 4 mps 697 mmHg 10%
    16:00 +39°C° 0 mm 5 mps 697 mmHg 10%
    17:00 +36°C° 0 mm 4 mps 696 mmHg 12%
    18:00 +34°C° 0 mm 4 mps 696 mmHg 14%
    19:00 +32°C° 0 mm 4 mps 696 mmHg 15%
    20:00 +30°C° 0 mm 3 mps 696 mmHg 16%
    21:00 +29°C° 0 mm 3 mps 696 mmHg 17%
    22:00 +28°C° 0 mm 2 mps 696 mmHg 17%
    23:00 +27°C° 0 mm 2 mps 695 mmHg 18%

    3 June, Wednesday

    Time Temperature Precipitation Wind Pressure Humidity
    00:00 +27°C° 0 mm 2 mps 695 mmHg 19%
    01:00 +26°C° 0 mm 1 mps 695 mmHg 20%
    02:00 +26°C° 0 mm 1 mps 695 mmHg 20%
    03:00 +25°C° 0 mm 1 mps 694 mmHg 21%
    04:00 +25°C° 0 mm 2 mps 694 mmHg 21%
    05:00 +27°C° 0 mm 2 mps 695 mmHg 20%
    06:00 +29°C° 0 mm 2 mps 695 mmHg 19%
    07:00 +31°C° 0 mm 2 mps 696 mmHg 17%
    08:00 +34°C° 0 mm 3 mps 696 mmHg 15%
    09:00 +36°C° 0 mm 4 mps 696 mmHg 13%
    10:00 +37°C° 0 mm 5 mps 697 mmHg 11%
    11:00 +39°C° 0 mm 5 mps 696 mmHg 11%
    12:00 +40°C° 0 mm 5 mps 696 mmHg 11%
    13:00 +40°C° 0 mm 6 mps 696 mmHg 11%
    14:00 +40°C° 0 mm 6 mps 695 mmHg 11%
    15:00 +40°C° 0 mm 6 mps 695 mmHg 12%
    16:00 +39°C° 0 mm 6 mps 695 mmHg 12%
    17:00 +36°C° 0 mm 5 mps 695 mmHg 14%
    18:00 +35°C° 0 mm 4 mps 695 mmHg 15%
    19:00 +33°C° 0 mm 3 mps 694 mmHg 16%
    20:00 +30°C° 0 mm 3 mps 694 mmHg 17%
    21:00 +29°C° 0 mm 2 mps 694 mmHg 18%
    22:00 +28°C° 0 mm 2 mps 694 mmHg 20%
    23:00 +28°C° 0 mm 2 mps 694 mmHg 20%
    Show more